| time (UTC) | temp F | wind direction | speed MPH | gust MPH | rain 1hr in | rain 24hr in | rain mn in | humidity % | barometer mb |
| 20260902101507 | 72 | 303 | 4.0 | 9.0 | 0.00 | 0.00 | 0.00 | 44 | 1013.0 |
| 20260902100009 | 73 | 303 | 6.0 | 10.0 | 0.00 | 0.00 | 0.00 | 41 | 1012.9 |
| 20260902094508 | 73 | 304 | 8.0 | 15.0 | 0.00 | 0.00 | 0.00 | 41 | 1012.7 |
| 20260902093005 | 73 | 313 | 6.0 | 11.0 | 0.00 | 0.00 | 0.00 | 41 | 1012.8 |
| 20260902091505 | 73 | 312 | 6.0 | 12.0 | 0.00 | 0.00 | 0.00 | 42 | 1012.6 |
| 20260902090011 | 73 | 318 | 4.0 | 13.0 | 0.00 | 0.00 | 0.00 | 41 | 1012.5 |
| 20260902084504 | 73 | 305 | 6.0 | 12.0 | 0.00 | 0.00 | 0.00 | 42 | 1012.4 |
| 20260902083002 | 73 | 303 | 3.0 | 9.0 | 0.00 | 0.00 | 0.00 | 42 | 1012.3 |
| 20260902081501 | 74 | 309 | 3.0 | 10.0 | 0.00 | 0.00 | 0.00 | 40 | 1012.0 |
| 20260902080001 | 74 | 307 | 2.0 | 9.0 | 0.00 | 0.00 | 0.00 | 40 | 1012.0 |
| 20260902074600 | 75 | 305 | 3.0 | 9.0 | 0.00 | 0.00 | 0.00 | 39 | 1011.8 |
| 20260902073059 | 77 | 301 | 4.0 | 12.0 | 0.00 | 0.00 | 0.00 | 36 | 1011.6 |
| 20260902071559 | 78 | 294 | 5.0 | 12.0 | 0.00 | 0.00 | 0.00 | 35 | 1011.3 |
| 20260902070058 | 80 | 5 | 6.0 | 12.0 | 0.00 | 0.00 | 0.00 | 32 | 1011.2 |
| 20260902064604 | 83 | 325 | 7.0 | 15.0 | 0.00 | 0.00 | 0.00 | 29 | 1011.2 |
| 20260902063110 | 84 | 330 | 8.0 | 16.0 | 0.00 | 0.00 | 0.00 | 29 | 1011.0 |
| 20260902061619 | 86 | 345 | 5.0 | 16.0 | 0.00 | 0.00 | 0.00 | 28 | 1011.0 |
| 20260902060100 | 86 | 58 | 4.0 | 15.0 | 0.00 | 0.00 | 0.00 | 28 | 1011.0 |
| 20260902054555 | 85 | 301 | 6.0 | 18.0 | 0.00 | 0.00 | 0.00 | 29 | 1010.9 |
| 20260902053051 | 86 | 289 | 10.0 | 19.0 | 0.00 | 0.00 | 0.00 | 27 | 1011.1 |
| 20260902051559 | 82 | 309 | 6.0 | 16.0 | 0.00 | 0.00 | 0.00 | 30 | 1011.0 |
| 20260902050050 | 85 | 10 | 9.0 | 21.0 | 0.00 | 0.00 | 0.00 | 27 | 1011.2 |
| 20260902044605 | 87 | 305 | 7.0 | 18.0 | 0.00 | 0.00 | 0.00 | 27 | 1011.1 |
| 20260902043049 | 86 | 330 | 9.0 | 20.0 | 0.00 | 0.00 | 0.00 | 25 | 1011.0 |
| 20260902041548 | 86 | 290 | 12.0 | 21.0 | 0.00 | 0.00 | 0.00 | 26 | 1011.1 |
| 20260902040146 | 86 | 334 | 6.0 | 14.0 | 0.00 | 0.00 | 0.00 | 30 | 1011.1 |
| 20260902034542 | 86 | 312 | 8.0 | 14.0 | 0.00 | 0.00 | 0.00 | 30 | 1011.3 |
| 20260902033039 | 86 | 5 | 2.0 | 17.0 | 0.00 | 0.00 | 0.00 | 31 | 1011.5 |
| 20260902031552 | 86 | 332 | 7.0 | 17.0 | 0.00 | 0.00 | 0.00 | 31 | 1011.8 |
| 20260902030034 | 86 | 313 | 7.0 | 16.0 | 0.00 | 0.00 | 0.00 | 32 | 1012.3 |
| 20260902024537 | 85 | 324 | 5.0 | 20.0 | 0.00 | 0.00 | 0.00 | 33 | 1012.3 |
| 20260902023030 | 85 | 62 | 7.0 | 12.0 | 0.00 | 0.00 | 0.00 | 32 | 1012.5 |
| 20260902021523 | 84 | 349 | 4.0 | 16.0 | 0.00 | 0.00 | 0.00 | 34 | 1012.7 |
| 20260902020023 | 83 | 309 | 7.0 | 22.0 | 0.00 | 0.00 | 0.00 | 35 | 1013.0 |
| 20260902014516 | 82 | 5 | 8.0 | 17.0 | 0.00 | 0.00 | 0.00 | 36 | 1013.3 |
| 20260902013011 | 82 | 345 | 4.0 | 18.0 | 0.00 | 0.00 | 0.00 | 38 | 1013.7 |
| 20260902011507 | 81 | 348 | 9.0 | 17.0 | 0.00 | 0.00 | 0.00 | 38 | 1013.9 |
| 20260902010004 | 79 | 29 | 9.0 | 17.0 | 0.00 | 0.00 | 0.00 | 39 | 1014.1 |
| 20260902004600 | 78 | 348 | 8.0 | 18.0 | 0.00 | 0.00 | 0.00 | 40 | 1014.2 |
| 20260902003056 | 79 | 338 | 9.0 | 19.0 | 0.00 | 0.00 | 0.00 | 40 | 1014.4 |
| 20260902001553 | 78 | 347 | 5.0 | 12.0 | 0.00 | 0.00 | 0.00 | 43 | 1014.9 |
| 20260902000048 | 75 | 333 | 6.0 | 14.0 | 0.00 | 0.00 | 0.00 | 46 | 1015.0 |
| 20260901234543 | 72 | 37 | 3.0 | 8.0 | 0.00 | 0.00 | 0.00 | 53 | 1015.0 |
| 20260901233040 | 70 | 360 | 3.0 | 9.0 | 0.00 | 0.00 | 0.00 | 54 | 1015.1 |
| 20260901231545 | 68 | 21 | 4.0 | 12.0 | 0.00 | 0.00 | 0.00 | 57 | 1015.3 |
| 20260901230032 | 67 | 347 | 4.0 | 10.0 | 0.00 | 0.00 | 0.00 | 59 | 1015.6 |
| 20260901224534 | 66 | 343 | 2.0 | 10.0 | 0.00 | 0.00 | 0.00 | 60 | 1015.5 |
| 20260901223029 | 66 | 345 | 3.0 | 9.0 | 0.00 | 0.00 | 0.00 | 60 | 1015.5 |
| 20260901221526 | 65 | 334 | 2.0 | 8.0 | 0.00 | 0.00 | 0.00 | 62 | 1015.7 |
| 20260901220023 | 64 | 323 | 2.0 | 6.0 | 0.00 | 0.00 | 0.00 | 64 | 1015.6 |
| 20260901214522 | 63 | 324 | 3.0 | 8.0 | 0.00 | 0.00 | 0.00 | 64 | 1015.5 |
| 20260901213027 | 62 | 346 | 2.0 | 6.0 | 0.00 | 0.00 | 0.00 | 67 | 1015.8 |
| 20260901211521 | 63 | 360 | 3.0 | 6.0 | 0.00 | 0.00 | 0.00 | 67 | 1015.8 |
| 20260901210020 | 63 | 70 | 1.0 | 4.0 | 0.00 | 0.00 | 0.00 | 68 | 1015.4 |
| 20260901204518 | 62 | 360 | 1.0 | 6.0 | 0.00 | 0.00 | 0.00 | 67 | 1015.8 |
| 20260901203016 | 61 | 268 | 1.0 | 4.0 | 0.00 | 0.00 | 0.00 | 71 | 1015.9 |
| 20260901201515 | 61 | 337 | 1.0 | 0.0 | 0.00 | 0.00 | 0.00 | 73 | 1015.6 |
| 20260901200019 | 62 | 10 | 0.0 | 2.0 | 0.00 | 0.00 | 0.00 | 73 | 1015.1 |
| 20260901194512 | 62 | 10 | 0.0 | 2.0 | 0.00 | 0.00 | 0.00 | 73 | 1015.2 |
| 20260901193010 | 61 | 10 | 0.0 | 2.0 | 0.00 | 0.00 | 0.00 | 75 | 1015.0 |
| 20260901191514 | 61 | 17 | 0.0 | 4.0 | 0.00 | 0.00 | 0.00 | 75 | 1015.1 |
| 20260901190006 | 61 | 63 | 2.0 | 4.0 | 0.00 | 0.00 | 0.00 | 75 | 1014.8 |
| 20260901184505 | 61 | 81 | 0.0 | 5.0 | 0.00 | 0.00 | 0.00 | 74 | 1014.8 |
| 20260901183008 | 60 | 18 | 2.0 | 6.0 | 0.00 | 0.00 | 0.00 | 73 | 1014.7 |
| 20260901181503 | 60 | 57 | 2.0 | 5.0 | 0.00 | 0.00 | 0.00 | 73 | 1014.7 |
| 20260901180001 | 60 | 45 | 2.0 | 6.0 | 0.00 | 0.00 | 0.00 | 71 | 1014.8 |
| 20260901174600 | 60 | 54 | 1.0 | 5.0 | 0.00 | 0.00 | 0.00 | 69 | 1014.8 |
| 20260901173141 | 60 | 27 | 3.0 | 5.0 | 0.00 | 0.00 | 0.00 | 68 | 1014.9 |
| 20260901171600 | 60 | 38 | 2.0 | 5.0 | 0.00 | 0.00 | 0.00 | 70 | 1015.0 |
| 20260901164554 | 60 | 22 | 3.0 | 9.0 | 0.00 | 0.00 | 0.00 | 74 | 1015.3 |
| 20260901163110 | 60 | 26 | 2.0 | 6.0 | 0.00 | 0.00 | 0.00 | 73 | 1015.7 |
| 20260901161603 | 60 | 54 | 3.0 | 5.0 | 0.00 | 0.00 | 0.00 | 68 | 1015.6 |
| 20260901160055 | 60 | 360 | 2.0 | 6.0 | 0.00 | 0.00 | 0.00 | 73 | 1015.5 |
| 20260901154549 | 60 | 29 | 1.0 | 6.0 | 0.00 | 0.00 | 0.00 | 73 | 1015.7 |
| 20260901153046 | 60 | 37 | 1.0 | 4.0 | 0.00 | 0.00 | 0.00 | 71 | 1015.6 |
| 20260901151552 | 60 | 65 | 3.0 | 6.0 | 0.00 | 0.00 | 0.00 | 67 | 1016.0 |
| 20260901150044 | 61 | 38 | 2.0 | 7.0 | 0.00 | 0.00 | 0.00 | 65 | 1016.3 |
| 20260901144538 | 60 | 58 | 2.0 | 5.0 | 0.00 | 0.00 | 0.00 | 64 | 1016.3 |
| 20260901143040 | 59 | 45 | 3.0 | 8.0 | 0.00 | 0.00 | 0.00 | 66 | 1016.3 |
| 20260901141542 | 59 | 350 | 2.0 | 3.0 | 0.00 | 0.00 | 0.00 | 65 | 1016.6 |
| 20260901140029 | 61 | 349 | 2.0 | 4.0 | 0.00 | 0.00 | 0.00 | 62 | 1016.8 |
| 20260901134530 | 62 | 5 | 1.0 | 5.0 | 0.00 | 0.00 | 0.00 | 60 | 1016.9 |
| 20260901133027 | 62 | 41 | 3.0 | 8.0 | 0.00 | 0.00 | 0.00 | 60 | 1016.9 |
| 20260901131532 | 61 | 31 | 2.0 | 5.0 | 0.00 | 0.00 | 0.00 | 60 | 1017.0 |
| 20260901130026 | 61 | 22 | 1.0 | 3.0 | 0.00 | 0.00 | 0.00 | 61 | 1017.0 |
| 20260901124526 | 61 | 22 | 0.0 | 5.0 | 0.00 | 0.00 | 0.00 | 61 | 1017.1 |
| 20260901123032 | 60 | 353 | 0.0 | 3.0 | 0.00 | 0.00 | 0.00 | 62 | 1017.0 |
| 20260901121528 | 60 | 360 | 2.0 | 5.0 | 0.00 | 0.00 | 0.00 | 61 | 1017.1 |
| 20260901120024 | 60 | 360 | 3.0 | 5.0 | 0.00 | 0.00 | 0.00 | 59 | 1017.5 |
| 20260901114525 | 61 | 341 | 1.0 | 3.0 | 0.00 | 0.00 | 0.00 | 56 | 1017.9 |
| 20260901113023 | 61 | 340 | 1.0 | 4.0 | 0.00 | 0.00 | 0.00 | 57 | 1018.2 |
| 20260901111522 | 61 | 316 | 0.0 | 3.0 | 0.00 | 0.00 | 0.00 | 58 | 1018.4 |
| 20260901110022 | 62 | 314 | 1.0 | 3.0 | 0.00 | 0.00 | 0.00 | 59 | 1018.3 |
| 20260901104621 | 63 | 313 | 1.0 | 3.0 | 0.00 | 0.00 | 0.00 | 57 | 1018.3 |
| 20260901103020 | 64 | 310 | 1.0 | 4.0 | 0.00 | 0.00 | 0.00 | 55 | 1018.3 |